Regional Weather Roundup
Issued by NWS

Home | Current Version | Previous Version | Graphics & Text | Print | Product List | Glossary Off
Versions: 1 2 3 4 5 6 7 8 9 10 11 12 13 14 15 16 17 18 19 20 21 22 23 24 25 26 27 28 29 30 31 32 33 34 35 36 37 38 39 40 41 42 43 44 45 46 47 48 49 50

000
ASUS43 KMKX 112020
RWRWI

WISCONSIN REGIONAL WEATHER ROUNDUP
NATIONAL WEATHER SERVICE MILWAUKEE/SULLIVAN WI
200 PM CST THU FEB 11 2016

NOTE: "FAIR" INDICATES FEW OR NO CLOUDS BELOW 12,000 FEET WITH NO
SIGNIFICANT WEATHER AND/OR OBSTRUCTIONS TO VISIBILITY.

WIZ001-002-006>008-014>016-023>028-112100-
NORTHWEST WISCONSIN

CITY           SKY/WX    TMP DP  RH WIND       PRES   REMARKS
SUPERIOR ARPT  CLOUDY    13  -5  43 W7        30.22F WCI   3
ASHLAND        CLOUDY    13  -2  51 SW5       30.20F WCI   5
HAYWARD        PTSUNNY   11  -7  44 SW7       30.19F WCI   0
SIREN          CLOUDY    13  -6  42 SW7       30.22F WCI   2
CUMBERLAND     CLOUDY    12  -8  40 S6        30.20F WCI   3
RICE LAKE      PTSUNNY   12  -7  42 W5        30.23F WCI   5
CHETEK         CLOUDY    13  -6  42 CALM      30.23F
LADYSMITH      CLOUDY    15  -4  42 SW5       30.22F WCI   7
EAU CLAIRE     CLOUDY    12  -4  48 W8        30.25F WCI   0
MENOMONIE      MOSUNNY   24  -3  30 S3        30.24F
NEW RICHMOND   CLOUDY    14  -3  47 S6        30.24F WCI   5
OSCEOLA        CLOUDY    16  -2  46 SW6       30.27F WCI   7
$$

WIZ003>005-009-010-017-018-112100-
NORTH CENTRAL WISCONSIN

CITY           SKY/WX    TMP DP  RH WIND       PRES   REMARKS
MANITOWISH WTR CLOUDY    13  -3  49 W8        30.11F WCI   1
ARBOR VITAE    MOSUNNY   14  -3  45 NW9       30.12F WCI   2
WOODRUFF       MOSUNNY   14  -3  45 NW9       30.12F WCI   2
RHINELANDER    CLOUDY    14  -5  42 W12       30.12F WCI   0
EAGLE RIVER    SUNNY     13  -6  42 N8        30.10F WCI   2
LAND O LAKES   SUNNY     13  -2  51 W5        30.10F WCI   6
PHILLIPS       PTSUNNY   12  -6  44 SW10      30.15F WCI  -1
TOMAHAWK       SUNNY     15  -7  38 W3        30.16S
MEDFORD        PTSUNNY   10  -2  56 SW8       30.17F WCI  -1
MERRILL        SUNNY     17  -4  39 W13       30.18S WCI   4
$$

WIZ029-030-035-036-043>047-112100-
CENTRAL WISCONSIN

CITY           SKY/WX    TMP DP  RH WIND       PRES   REMARKS
WAUSAU         SUNNY     14  -3  47 W14       30.18F WCI  -1
MOSINEE        SUNNY     12  -2  52 W10       30.21F WCI  -1
MARSHFIELD     SUNNY     13  -2  51 NW7       30.19F WCI   3
STEVENS POINT  SUNNY     13  -5  44 W8        30.22F WCI   2
WAUPACA        SUNNY     19  -2  39 SW9G16    30.24F WCI   9
WAUTOMA        SUNNY     17  -4  39 W12       30.25F WCI   4
WISC RAPIDS    SUNNY     15  -4  42 W10       30.24F WCI   2
CAMP DOUGLAS   MOSUNNY   16  -2  45 W5        30.25F WCI   9
$$

WIZ011>013-019>022-031-037>040-048>050-112100-
NORTHEAST WISCONSIN

CITY           SKY/WX    TMP DP  RH WIND       PRES   REMARKS
ANTIGO         SUNNY     14   0  53 W10G17    30.15S WCI   1
SHAWANO        SUNNY     20   1  43 SW8       30.21F WCI  11
OCONTO         SUNNY     17   1  48 W9        30.21F WCI   6
STURGEON BAY   SUNNY     14   0  52 W12       30.22F WCI   0
GREEN BAY      SUNNY     16   1  51 W9        30.23F WCI   4
MANITOWOC      SUNNY     17   3  54 W14       30.25F WCI   3
APPLETON       MOSUNNY   18   0  45 SW10      30.21F WCI   6
CLINTONVILLE   SUNNY     19   0  42 W10       30.21F WCI   8
OSHKOSH        SUNNY     16   0  49 W7        30.24F WCI   6
$$

WIZ032>034-041-042-053>061-112100-
SOUTHWEST WISCONSIN

CITY           SKY/WX    TMP DP  RH WIND       PRES   REMARKS
LA CROSSE      SUNNY     17   0  47 SE5       30.29F WCI  10
SPARTA         SUNNY     17  -3  42 W5        30.27F WCI  10
VIROQUA        SUNNY     17  -4  40 W7        30.23F WCI   7
BOSCOBEL       SUNNY     19  -2  39 S6        30.30F WCI  11
PRAIRIE DU CHI SUNNY     17  -2  42 W6        30.31F WCI   8
PLATTEVILLE    SUNNY     16   2  54 S3        30.28F
$$

WIZ056-057-062-063-064-067-068-112100-
SOUTH CENTRAL WISCONSIN

CITY           SKY/WX    TMP DP  RH WIND       PRES   REMARKS
REEDSBURG      SUNNY     16  -3  43 W6        30.26F WCI   8
BARABOO/DELLS  SUNNY     16  -5  39 W5        30.25F WCI   9
LONE ROCK      SUNNY     17  -3  41 CALM      30.29F
MINERAL POINT  SUNNY     18  -2  41 SW5       30.26F WCI  11
MADISON        MOSUNNY   17  -2  43 NW7       30.27F WCI   8
MIDDLETON      SUNNY     20  -2  38 W7        30.27F WCI  11
WATERTOWN      SUNNY     16   1  51 NW8       30.26F WCI   6
MONROE         SUNNY     21   0  39 W6        30.26F WCI  14
JANESVILLE     SUNNY     21   1  42 NW7       30.28F WCI  13
$$

WIZ051-052-058>065-066-070>072-112100-
SOUTHEAST WISCONSIN

CITY           SKY/WX    TMP DP  RH WIND       PRES   REMARKS
MILWAUKEE      MOSUNNY   18  -1  43 W8        30.28F WCI   8
WAUKESHA       SUNNY     14   0  52 NW9       30.27F WCI   2
MILWAUKEE/TIMM SUNNY     18  -2  41 W8        30.28F WCI   7
RACINE         SUNNY     18   0  45 NW9       30.29F WCI   7
BURLINGTON     SUNNY     17   0  46 NW9       30.27F WCI   6
KENOSHA        SUNNY     18   2  49 W6        30.28F WCI  10
FOND DU LAC    SUNNY     15   0  51 W12       30.25F WCI   2
SHEBOYGAN      SUNNY     15   1  53 W14       30.25F WCI   0
WEST BEND      SUNNY     18   0  45 CALM      30.25F
JUNEAU         SUNNY     14  -1  52 W7        30.27F WCI   4
$$

LSZ147-162-112100-
LAKE SUPERIOR

STATION/POSITION TIME  TEMP    WIND        PRES    WAVE
                       AIR SEA DIR/SP/G            HT/PER
                 (UTC) (F)     (DEG/KT/KT) (MB)    (FT/S)
DEVILS ISLAND    2000   13     230/ 15/ 18 1023.0F
SAXON HARBOR     1900   14                 1023.7F
$$

LMZ867-665-643>646-112100-
LAKE MICHIGAN

STATION/POSITION TIME  TEMP    WIND        PRES    WAVE
                       AIR SEA DIR/SP/G            HT/PER
                 (UTC) (F)     (DEG/KT/KT) (MB)    (FT/S)
CHAMBERS ISLAND  1900   17     220/  7/ 11 1023.0F
ALGOMA LAKESHORE 1911          290/  3/  9   N/A
KEWAUNEE LAKESHO 1900   14     270/  9/ 12 1023.3F
SHEBOYGAN LAKESH 2000   15     290/ 10/ 13 1026.1F
PORT WASHINGTON  1900   16     290/  5/ 13 1026.4F
MILWAUKEE LAKESH 1910   17     320/  6/  7   N/A
KENOSHA   LAKESH 2000   17     300/  8/ 13 1025.4F
$$

TC  - TEMPERATURE IN CELSIUS
VSB - VISIBILITY IN STATUTE MILES
WCI - WIND CHILL INDEX
HX  - HEAT INDEX




USA.gov is the U.S. government's official web portal to all federal, state and local government web resources and services.